Theta_e
332 331 338 345 351 354 354 354 355 355 355 354 354 354 353 353 353 351 351 351 350 349 348 348 347 347 347 348 348 348 349 350 350 350 350 350 350 350 351 351 351 351 351 349 349 349 348 348 348 346 347 347 347 348 348 348 349 349 349 348 348 347 346 345 345 346 347 349 351 351 350 351 351 351 351 351 351 351 350 350 349 347 347 350 353
332 332 339 342 350 354 354 354 354 354 355 355 354 354 353 353 352 351 351 350 349 349 348 347 347 347 347 347 347 348 349 349 350 350 349 349 349 349 349 349 350 350 351 350 349 348 348 347 347 346 346 346 345 345 345 346 346 345 345 346 346 345 343 342 343 344 346 346 347 348 348 349 348 350 350 351 350 351 349 349 349 345 344 350 351
329 332 339 342 349 352 353 354 354 354 355 355 354 353 353 353 352 351 351 350 349 349 348 348 347 347 347 347 348 349 349 349 349 349 348 349 348 348 348 349 349 350 350 349 349 349 348 347 346 345 344 343 343 343 342 342 342 342 343 343 343 342 341 341 343 343 343 345 345 345 344 347 347 347 349 349 349 350 348 348 348 347 346 350 349
330 333 339 342 346 349 353 354 354 354 355 354 354 354 353 353 352 351 350 350 350 349 348 347 347 346 347 348 348 348 349 348 348 347 347 348 348 347 347 348 348 349 349 349 348 348 348 347 346 345 344 342 342 341 340 340 340 339 340 341 341 340 339 341 342 342 342 343 344 342 340 336 341 346 347 347 348 348 346 347 347 348 348 348 349
331 335 340 342 345 347 351 353 354 355 355 355 354 354 354 353 352 351 351 350 350 349 348 347 347 347 347 348 348 348 348 348 347 347 346 348 347 347 347 347 347 348 348 348 346 348 347 346 345 344 342 341 340 340 339 338 338 338 338 338 339 338 339 341 342 341 341 342 343 340 335 336 338 345 345 346 346 346 345 345 346 347 347 347 347
331 335 339 342 344 345 349 352 354 355 355 354 354 353 353 353 352 351 350 350 349 349 348 347 347 346 349 348 348 348 348 347 347 347 347 347 347 348 347 347 347 348 348 348 347 345 346 346 345 344 342 340 339 339 338 337 336 335 336 336 336 337 338 341 341 340 340 341 340 335 335 335 336 340 346 346 345 345 344 345 346 345 345 346 345
331 335 339 341 344 344 346 351 354 355 354 355 354 353 353 352 351 351 351 350 349 349 348 346 348 346 347 348 348 348 348 347 347 346 346 346 347 347 347 346 347 348 347 347 346 346 345 346 344 343 342 340 338 337 337 336 334 332 332 334 335 335 339 340 339 339 338 335 334 333 334 334 336 335 345 345 345 345 345 345 345 345 344 343 343
330 334 339 341 343 344 345 351 353 354 354 354 354 354 352 352 351 351 351 350 349 349 348 347 347 346 348 348 348 348 346 346 346 346 346 346 346 346 346 346 346 347 347 346 346 345 345 344 343 342 341 339 337 336 335 334 332 330 329 331 333 335 339 339 338 338 338 331 332 333 334 334 334 335 345 344 344 344 343 345 344 343 342 342 341
330 332 337 340 341 343 344 347 353 354 354 354 353 353 352 352 351 351 351 350 349 349 348 348 347 347 347 348 347 347 347 346 346 346 345 345 346 345 346 346 346 346 347 346 346 345 344 343 342 341 339 338 335 334 333 332 330 328 328 331 332 336 338 338 336 334 332 332 333 334 333 332 333 333 343 344 344 344 343 342 343 343 341 340 340
329 331 335 339 340 341 344 346 352 353 353 353 353 353 352 351 351 351 351 350 349 349 348 348 348 348 347 348 348 347 347 346 346 345 344 344 345 346 346 346 345 346 346 346 345 344 343 342 339 339 338 336 334 333 332 330 328 327 328 331 334 336 337 336 335 333 333 336 336 335 335 339 331 332 341 344 343 343 342 342 341 340 340 340 339
327 330 333 336 338 341 344 348 350 351 353 353 353 352 352 352 351 351 350 350 349 349 348 348 348 348 348 348 348 347 347 346 346 345 344 345 345 346 346 346 346 346 345 345 344 343 342 340 338 338 337 335 332 331 330 328 326 326 327 331 334 335 335 333 331 328 332 334 335 334 338 341 330 332 343 343 342 343 341 341 341 341 341 341 340
327 328 331 333 337 340 343 347 348 352 352 352 353 352 352 351 351 350 350 350 350 349 349 348 348 348 348 348 348 348 348 347 346 345 344 344 345 346 346 346 346 345 345 344 342 341 339 337 338 337 336 333 331 329 328 325 324 326 328 330 333 333 331 330 325 327 328 329 331 329 325 328 329 337 344 344 343 342 341 340 341 341 340 340 340
330 329 330 331 332 338 341 346 346 350 351 352 353 353 352 352 351 350 350 350 350 349 349 348 349 348 348 348 348 348 348 347 346 345 344 345 345 345 345 346 345 344 343 342 341 340 338 339 338 337 335 332 331 328 326 323 323 324 326 329 332 332 329 326 321 325 325 326 326 324 321 323 326 342 342 343 343 341 339 339 339 339 339 338 338
330 331 329 332 332 336 338 340 343 347 350 351 352 352 352 352 351 350 350 350 350 349 349 348 348 348 348 348 348 348 347 347 346 346 345 345 345 345 344 343 343 342 341 340 339 339 339 338 341 338 334 331 329 327 324 322 322 323 325 328 331 329 325 323 323 321 323 324 326 325 323 324 321 341 341 340 340 339 338 337 337 337 336 336 335
329 330 329 330 331 334 334 337 340 342 347 349 350 351 352 351 351 351 350 350 350 350 348 349 349 348 348 349 348 348 347 347 347 346 345 345 345 345 343 343 342 341 340 339 338 338 337 339 340 336 333 330 329 325 322 322 322 322 325 328 328 326 322 311 314 314 319 322 322 322 321 320 337 339 339 338 337 337 336 335 335 335 334 333 332
323 325 326 328 329 330 333 335 336 336 341 344 346 348 349 350 350 350 350 350 349 349 349 349 349 349 349 349 349 349 347 347 346 345 345 344 344 344 343 342 341 341 340 339 337 337 336 339 337 333 332 330 327 324 322 320 320 322 325 327 326 324 321 316 311 310 312 316 316 318 318 321 338 338 336 335 336 334 334 333 333 333 333 331 331
320 322 327 329 327 329 332 335 336 333 334 336 339 342 344 347 348 349 348 348 348 348 349 349 349 349 349 349 349 347 346 347 347 346 345 344 344 344 344 342 342 341 340 338 337 336 337 338 335 332 331 329 327 323 320 319 320 322 324 325 324 322 319 315 311 309 312 315 314 316 318 321 335 336 333 337 334 333 333 333 332 331 330 328 327
318 322 327 328 329 329 331 334 338 339 340 336 333 337 341 345 345 345 345 346 346 347 347 347 347 347 346 345 343 343 344 345 345 345 345 345 343 342 343 342 342 341 340 337 335 339 338 335 333 332 330 328 326 322 319 318 319 320 322 324 324 322 319 316 308 308 313 317 312 315 317 332 334 334 334 333 331 331 330 331 331 329 327 326 326
314 319 323 325 329 329 332 335 337 340 341 340 340 339 334 339 341 342 342 343 344 343 344 343 342 343 343 341 339 338 336 338 339 341 342 341 338 335 341 343 341 341 339 336 333 338 336 334 333 331 329 327 325 321 319 318 318 319 321 321 319 316 315 311 305 307 309 310 311 313 315 332 332 333 334 333 332 331 330 328 327 326 324 325 326
313 319 323 324 325 330 334 336 338 340 341 341 340 341 335 331 336 338 339 340 340 341 340 338 335 336 337 336 334 331 331 335 331 335 334 339 337 332 336 337 342 341 337 334 335 337 335 334 332 331 329 327 324 320 317 317 317 318 319 319 315 312 304 303 303 305 305 310 314 310 324 331 331 332 332 332 330 329 328 327 325 326 325 326 326
314 316 322 326 325 328 332 334 337 339 340 341 341 341 341 330 331 331 333 336 337 336 337 333 329 328 329 328 327 332 333 335 333 336 328 336 330 327 332 336 340 340 338 337 336 336 335 333 332 330 328 326 321 318 317 316 316 316 316 314 310 302 300 302 302 306 304 306 310 308 328 330 329 331 330 329 327 326 327 326 323 325 326 327 327
312 314 313 321 328 329 330 333 335 337 339 340 341 341 342 335 339 340 337 336 332 331 332 333 329 330 326 329 330 328 328 331 334 332 334 333 330 325 328 334 338 335 335 337 337 335 334 333 332 330 328 324 316 301 298 307 312 313 312 308 298 297 298 299 300 301 303 305 307 314 328 328 328 329 327 327 326 326 326 326 327 327 327 326 326
312 314 315 316 323 329 331 332 333 335 337 338 340 340 341 339 339 341 339 332 334 331 334 333 332 331 331 332 329 327 327 329 332 332 333 327 331 323 327 330 334 332 333 335 336 335 334 333 331 329 325 316 301 295 292 288 289 304 302 295 294 296 297 298 297 299 301 305 305 318 328 327 327 327 327 326 326 327 327 327 326 326 325 325 325
308 310 313 313 317 324 330 332 332 334 335 337 338 339 339 339 340 341 340 338 337 336 335 335 334 334 334 334 332 329 330 331 329 325 327 331 330 321 324 326 329 327 328 330 332 334 333 332 330 325 313 302 297 294 291 288 288 289 292 292 293 295 297 298 297 296 299 303 303 318 326 329 327 327 326 327 326 326 327 327 325 325 325 324 324
303 306 308 311 313 318 326 330 332 332 334 335 336 338 338 339 339 340 339 338 336 336 338 336 336 334 335 335 333 332 332 331 330 329 329 330 327 326 324 325 326 326 323 325 324 327 325 319 314 307 300 300 296 293 290 289 289 289 291 291 292 293 296 297 296 296 295 296 301 315 322 326 329 327 327 326 326 326 327 326 325 325 324 324 324
298 300 302 305 309 313 317 326 330 332 333 334 335 336 337 337 337 338 339 337 337 336 334 337 335 334 335 334 333 332 331 331 329 328 328 327 326 325 324 324 323 323 323 321 319 320 317 314 310 305 299 297 295 291 293 292 288 287 289 291 291 293 293 293 294 295 295 293 298 312 319 322 326 328 329 328 327 326 326 326 326 326 325 324 324
296 297 298 299 301 306 311 317 326 330 332 334 335 335 336 337 337 337 338 337 335 334 335 335 337 336 334 334 334 331 329 330 328 326 326 325 325 323 322 322 323 322 320 321 318 316 314 312 309 306 299 297 294 292 291 289 287 288 289 290 290 291 292 292 292 293 293 292 296 308 315 319 323 327 329 329 328 327 326 326 327 325 324 325 325
296 297 299 299 300 301 304 310 321 327 330 332 333 334 335 335 336 335 336 335 337 337 332 333 334 334 334 332 330 332 331 329 328 326 324 324 325 323 321 321 321 320 318 320 319 313 312 310 309 305 301 297 296 293 292 291 289 289 290 290 290 290 289 290 291 292 291 291 295 300 311 317 319 323 327 329 329 327 326 325 326 325 324 323 324
296 297 298 300 301 303 304 307 314 321 327 330 332 332 333 334 334 334 334 332 333 334 336 336 332 330 333 335 333 331 329 329 327 326 323 323 322 321 321 321 320 318 316 315 316 313 312 310 309 307 300 298 296 295 294 293 290 289 290 290 290 290 290 290 290 291 291 291 293 296 307 315 318 320 323 327 329 330 327 326 327 327 325 325 324
296 297 298 300 302 304 306 308 312 316 321 327 329 330 330 331 332 333 334 333 333 332 332 332 333 331 330 329 329 333 331 329 327 324 324 321 320 318 319 319 319 318 317 317 314 315 313 309 308 307 304 299 297 296 295 294 292 290 289 291 290 291 290 290 290 291 291 292 292 295 305 311 315 318 321 324 327 329 329 327 327 326 326 325 324
296 297 298 300 302 304 309 310 311 312 317 323 325 327 327 329 330 331 331 332 333 333 332 332 325 327 329 329 329 329 328 327 326 324 324 323 319 317 318 316 316 316 316 317 313 314 312 313 311 309 306 301 299 295 295 294 291 290 291 291 291 290 290 290 291 291 292 292 292 292 296 306 311 316 319 321 324 327 328 329 328 327 327 326 325
295 296 298 299 301 303 308 311 313 312 315 319 320 323 325 326 325 328 329 330 331 331 331 330 327 327 325 327 326 325 323 325 326 325 322 321 321 320 318 316 317 316 316 315 313 311 311 309 308 307 305 302 298 294 292 294 292 290 289 290 289 290 290 290 290 291 292 292 293 293 294 297 303 311 317 320 322 325 327 328 328 328 327 327 327
295 296 297 299 300 301 305 309 312 314 316 318 320 320 321 323 323 325 327 327 328 329 330 330 329 327 325 322 322 323 323 324 321 322 320 322 321 319 318 318 319 316 313 313 312 309 309 308 306 305 303 301 298 296 293 292 291 290 288 289 289 289 289 289 290 291 292 292 292 292 294 295 296 303 309 314 319 322 324 326 327 328 328 328 327
294 295 297 297 299 301 303 306 309 311 312 315 315 318 317 318 320 321 322 324 325 326 326 328 328 327 328 328 326 322 320 319 319 318 320 319 319 319 318 318 319 317 315 313 313 310 310 309 306 305 304 301 300 297 295 297 293 289 289 288 288 288 287 289 289 289 290 292 292 292 293 294 295 297 299 306 312 317 322 324 325 325 326 327 328
293 294 295 296 298 299 301 302 305 309 310 312 313 314 314 315 316 316 317 319 320 322 322 323 323 324 323 321 321 321 321 320 320 322 320 317 318 318 317 318 316 313 313 312 312 309 309 309 306 307 301 300 298 297 295 297 294 295 291 290 290 288 288 288 288 288 289 290 291 291 293 294 294 296 298 297 302 306 313 320 323 324 324 325 326
292 293 294 296 296 297 298 299 301 305 309 311 312 314 315 316 315 314 316 316 317 317 317 318 319 319 319 320 319 319 319 319 319 319 319 317 317 316 317 316 313 312 311 310 311 310 309 308 306 308 305 303 301 301 293 295 292 293 291 289 288 289 288 287 288 288 289 288 291 291 293 293 294 294 299 297 297 299 307 314 319 322 323 323 324
292 292 292 294 295 295 297 297 298 300 305 309 312 313 314 314 313 314 314 313 313 313 313 314 314 314 315 315 316 315 317 318 317 316 316 315 314 314 312 310 309 312 311 310 311 311 309 308 304 305 308 308 302 302 296 292 293 291 289 288 288 288 288 287 287 288 289 288 288 289 291 293 293 299 294 295 296 297 301 308 314 317 316 318 320
291 291 292 292 293 294 295 296 297 298 301 305 309 311 312 312 312 311 311 311 311 311 310 310 310 311 311 311 311 311 312 313 314 315 315 314 314 313 311 310 310 310 309 308 309 307 307 308 307 302 303 304 303 302 302 297 292 291 289 288 288 286 287 287 288 291 289 289 288 288 291 292 292 293 294 295 294 295 296 301 308 310 309 312 317
290 291 291 292 292 293 294 294 295 297 299 301 305 307 308 309 309 308 308 308 308 308 308 307 307 308 308 308 308 308 308 310 310 311 311 311 311 311 311 310 310 310 308 307 306 305 304 304 306 302 297 298 301 299 299 298 294 291 289 289 286 287 287 287 288 287 287 287 288 291 289 291 290 293 294 293 293 293 295 296 295 297 297 306 313
289 290 291 291 291 292 292 293 294 295 297 299 300 302 303 303 303 303 303 303 303 302 303 303 302 301 303 305 305 305 306 306 307 308 308 308 308 308 308 308 308 308 308 307 306 306 305 304 303 303 300 298 296 293 292 292 291 290 291 290 287 287 287 288 287 288 288 288 288 287 288 289 289 291 292 292 293 293 293 294 294 295 296 300 307
288 289 289 289 289 290 291 290 292 294 295 296 296 297 298 299 298 298 298 299 298 298 298 298 297 297 298 299 300 301 302 303 304 305 305 305 306 306 306 306 307 306 306 305 304 304 303 302 301 299 300 299 297 292 292 293 292 293 290 288 288 287 289 288 288 288 288 288 287 287 288 289 289 289 291 291 292 292 292 293 294 294 295 294 296
286 287 287 288 289 289 289 290 291 292 293 294 295 295 295 295 296 296 295 295 295 294 294 295 295 295 294 295 296 296 296 297 299 301 301 303 303 304 304 304 304 305 304 303 303 300 301 300 300 299 297 298 298 293 294 294 292 291 291 289 288 289 286 287 287 288 288 287 287 288 288 288 289 289 287 288 290 291 291 292 292 293 293 293 294
285 286 286 287 287 288 288 289 289 290 291 293 294 294 294 295 295 293 294 292 294 293 292 293 293 292 292 292 293 293 293 293 294 296 297 298 299 301 301 302 302 302 303 303 303 302 301 299 299 300 298 295 294 293 293 294 294 288 289 290 288 285 290 285 285 286 288 288 286 287 288 287 288 287 287 286 288 289 290 290 290 291 292 292 292
285 285 285 286 286 287 287 288 288 289 290 291 292 292 294 293 294 293 293 292 291 292 291 291 291 290 289 290 290 290 291 291 292 293 293 294 295 296 298 298 299 300 301 300 300 300 300 300 300 299 299 297 296 294 294 293 292 294 293 289 287 284 288 290 282 285 283 285 286 286 286 288 288 286 286 288 288 287 288 288 289 290 291 291 291
284 283 284 284 285 285 286 287 287 288 288 290 290 291 292 292 292 292 291 290 290 289 289 288 288 289 288 288 288 289 289 289 289 290 291 291 292 293 294 294 295 296 297 297 296 297 297 298 298 297 297 298 297 295 293 293 293 293 294 289 290 288 287 286 286 291 282 286 285 285 286 286 286 286 286 287 287 287 287 287 288 288 288 289 289
283 283 283 284 284 285 285 286 286 287 287 288 289 290 289 289 289 288 287 286 285 285 285 285 286 286 286 287 287 287 287 287 288 288 288 289 289 290 291 291 292 293 294 294 294 294 294 294 295 295 294 294 294 293 294 294 292 293 292 292 295 292 288 288 288 288 286 285 284 283 284 285 284 286 286 287 287 288 288 287 287 287 288 287 288
282 282 283 283 283 284 284 285 285 286 287 287 288 289 288 287 287 286 286 285 284 284 285 285 285 285 286 285 285 286 286 286 286 287 287 288 288 288 289 289 290 290 291 291 291 291 292 292 293 293 293 294 294 293 293 293 291 291 292 292 290 288 288 287 286 287 286 288 284 284 287 284 284 284 286 287 287 287 287 287 287 287 287 287 287
281 282 283 283 283 283 283 283 284 285 285 286 286 287 287 286 286 286 286 284 284 283 284 284 284 284 284 283 284 284 284 284 284 285 286 286 287 287 287 287 288 288 289 289 289 290 291 292 292 292 292 293 292 291 291 292 291 292 292 291 291 290 289 288 288 286 285 283 287 286 285 285 284 284 286 286 287 287 287 287 287 287 287 286 287
281 282 282 282 282 282 283 283 283 283 283 284 285 285 286 285 285 284 284 284 284 283 283 284 283 283 282 283 283 283 283 284 284 284 284 284 285 285 285 286 286 287 287 287 288 289 289 289 290 290 291 291 291 291 291 291 292 291 291 291 291 291 290 289 288 286 285 285 286 287 288 286 285 285 285 285 286 287 287 288 287 288 287 287 287
281 282 281 281 281 282 282 282 282 282 282 282 283 283 283 284 283 282 282 281 282 282 282 281 281 281 281 281 282 282 282 283 283 283 283 284 284 284 284 284 284 285 286 286 286 287 288 288 289 289 289 289 290 290 290 290 291 291 291 291 290 289 288 288 287 285 285 286 284 285 286 286 285 287 286 286 286 287 287 287 286 287 287 287 287
280 280 281 281 280 281 281 281 281 281 282 282 282 282 282 282 282 281 281 280 280 280 281 281 281 281 281 281 281 282 282 282 283 283 283 283 283 284 283 283 284 284 285 285 285 286 287 287 288 288 288 288 288 288 288 289 289 290 289 289 289 290 289 287 287 288 287 285 285 286 287 288 287 287 286 286 287 287 286 286 286 286 287 287 287
Wind_Speed
8 5 5 10 11 10 13 13 13 14 13 13 14 13 12 11 10 10 9 9 9 9 9 8 8 8 9 9 9 10 10 10 10 10 8 8 8 7 7 6 7 8 9 11 11 11 11 11 12 12 12 12 12 13 13 13 14 15 14 14 14 13 13 14 13 13 13 13 13 13 12 11 11 12 13 13 12 12 12 12 11 8 6 9 14
11 8 6 7 11 11 13 13 14 14 13 13 14 14 13 12 10 9 9 9 9 9 10 8 8 8 8 8 8 8 9 9 9 9 8 8 8 8 7 7 6 8 9 10 12 11 11 12 11 11 12 12 13 13 13 12 13 13 13 13 13 12 13 13 12 12 12 12 11 11 10 11 11 12 12 13 13 13 12 12 13 7 4 13 15
4 7 7 8 11 11 12 13 14 14 13 14 14 14 13 12 11 10 10 10 9 10 10 9 8 8 8 8 9 8 8 9 9 9 8 8 8 7 7 7 5 6 8 11 11 13 12 12 12 12 11 11 12 12 13 12 12 12 12 12 12 12 12 12 11 10 10 10 10 10 9 9 10 11 12 12 13 14 12 13 12 12 8 15 13
8 8 7 9 11 11 11 12 13 13 13 12 13 12 12 12 12 12 11 10 10 10 10 10 9 9 9 9 9 9 9 9 9 8 8 8 7 7 7 6 5 7 7 9 11 13 13 13 13 12 12 12 12 13 13 13 13 13 12 12 11 11 11 11 11 10 8 8 8 7 4 5 5 10 10 11 12 13 12 13 13 14 14 14 16
7 7 8 8 8 9 12 12 12 12 13 13 13 13 13 12 12 11 11 10 10 10 10 10 10 9 10 10 9 9 9 9 9 8 8 7 7 7 6 5 6 6 7 9 10 12 13 12 12 12 12 12 12 12 13 12 13 12 12 11 11 11 11 10 10 9 7 7 7 6 4 5 5 7 9 9 11 12 11 12 13 14 14 15 15
7 6 7 8 8 8 11 12 12 12 11 13 12 12 13 12 12 11 10 10 10 10 10 10 10 10 10 10 9 9 9 8 8 7 7 6 6 7 6 5 5 7 8 9 9 10 12 12 11 12 12 11 11 11 11 12 12 12 11 10 9 10 9 9 9 8 6 6 7 4 4 4 3 3 8 9 10 11 12 12 13 13 13 15 14
7 6 7 8 7 8 11 13 12 12 12 13 13 13 13 12 12 11 10 10 9 9 9 8 9 10 10 10 9 9 8 8 8 7 6 6 6 5 5 4 5 7 8 9 9 9 10 11 11 11 11 10 10 10 11 11 11 10 9 9 8 8 8 8 8 8 7 5 4 3 4 3 3 3 7 9 10 11 13 13 13 13 13 13 14
4 5 7 7 7 9 12 12 13 12 13 11 11 11 13 12 11 11 10 10 10 9 9 9 9 9 9 9 9 8 8 7 7 7 6 6 5 5 4 4 6 7 8 9 8 8 10 10 10 10 10 10 10 10 10 10 10 9 8 7 6 6 7 7 7 7 7 4 3 3 3 3 4 3 7 8 10 11 11 12 12 12 12 13 12
6 5 5 6 6 10 11 11 13 13 15 12 11 10 12 13 12 12 11 10 10 10 9 9 10 10 9 8 8 7 7 7 6 6 6 6 5 4 4 5 6 7 8 8 8 9 10 9 9 9 10 10 10 10 10 10 10 9 8 7 6 6 6 6 7 7 4 3 3 3 2 2 3 3 6 9 10 12 12 10 9 11 11 11 11
4 4 4 5 6 11 11 11 13 14 16 14 12 12 13 13 12 13 11 11 11 10 10 10 10 10 9 8 8 7 7 6 6 6 6 5 5 4 5 6 5 6 7 7 7 8 8 8 6 7 8 9 9 9 9 9 9 8 8 7 6 6 7 7 8 6 3 4 4 3 2 4 3 2 6 8 9 11 11 8 8 7 8 10 11
4 4 4 4 5 10 11 13 12 13 14 14 13 13 14 13 13 13 12 12 12 11 11 11 10 10 9 9 8 7 7 7 6 6 5 5 5 6 6 6 6 6 7 7 6 6 6 5 4 4 5 7 8 8 8 8 8 7 7 7 6 6 7 8 7 3 3 3 4 3 3 5 3 2 7 8 8 11 10 8 8 9 10 10 10
4 3 3 3 5 9 11 12 11 12 13 13 13 14 14 15 13 14 13 13 12 12 11 11 11 11 10 9 8 8 8 8 7 7 6 5 5 6 6 7 7 7 6 6 5 3 1 1 4 4 5 7 8 8 7 7 7 7 7 7 6 7 7 7 5 3 3 3 4 2 2 2 1 3 7 8 9 10 10 10 10 10 10 10 10
4 3 3 3 4 7 10 11 11 11 12 12 13 15 14 14 15 15 13 13 13 12 12 11 10 11 11 10 9 9 9 9 9 9 8 7 6 6 7 7 7 5 4 5 5 4 3 5 4 6 7 7 7 8 7 7 7 6 6 6 6 7 7 7 3 4 3 4 3 2 2 1 0 2 6 8 9 9 8 7 7 8 8 8 7
4 4 3 4 4 7 9 10 11 11 12 11 12 13 13 13 14 14 14 11 12 11 12 12 11 11 10 10 10 9 9 8 9 9 9 8 8 8 7 5 3 4 4 4 5 5 7 6 10 10 8 8 7 7 7 6 6 6 6 5 6 7 7 6 5 4 4 3 3 2 2 2 1 2 6 5 5 6 5 6 6 7 6 7 7
5 4 4 3 4 4 8 9 9 10 10 10 10 11 12 12 13 12 13 11 10 10 12 11 10 11 10 9 9 9 9 9 9 9 9 9 9 9 7 5 4 3 3 3 4 4 5 5 9 9 7 7 7 7 7 7 6 5 5 5 6 6 6 4 3 3 4 3 3 3 3 2 5 3 3 3 3 3 4 4 5 5 5 6 6
3 3 3 3 3 3 4 7 8 8 9 9 9 10 11 11 10 11 11 10 10 10 10 10 9 9 9 9 9 8 8 9 9 9 8 8 9 8 9 8 6 3 1 2 2 3 5 8 8 8 8 7 7 7 6 6 5 5 5 5 6 6 5 4 4 3 3 4 3 3 3 3 5 3 3 1 4 2 3 3 3 5 5 6 6
3 3 3 4 3 4 4 5 6 8 8 8 8 8 9 10 9 10 9 9 9 9 9 9 8 8 8 8 7 6 6 7 7 8 9 8 8 8 7 8 8 6 3 1 1 4 6 9 8 8 7 7 8 7 6 5 5 5 5 5 6 6 5 5 4 3 3 3 3 4 3 3 6 7 1 6 4 4 3 4 4 4 4 4 4
2 4 5 4 3 4 4 5 6 6 5 6 7 8 9 9 9 9 8 8 8 8 8 8 7 7 7 6 4 3 6 6 6 7 9 7 6 5 6 6 6 5 4 2 1 10 9 8 7 7 7 7 7 7 6 5 4 5 5 5 6 6 5 5 3 3 3 3 4 2 4 5 6 5 7 5 4 3 3 3 4 2 3 2 2
1 3 4 4 4 3 4 4 5 6 6 5 4 6 8 9 9 9 8 8 8 8 7 7 6 6 6 5 3 4 6 7 5 6 7 6 5 6 6 4 6 6 5 4 2 10 8 7 7 6 7 7 7 7 5 5 5 5 5 6 6 6 6 4 3 4 3 3 3 4 3 6 3 4 4 4 3 3 3 2 2 2 2 0 1
1 1 1 1 1 3 3 4 5 6 5 5 5 4 6 8 8 8 8 8 8 8 7 7 6 5 5 4 4 3 5 5 6 5 7 7 6 5 5 4 4 5 4 5 7 9 8 7 6 6 6 7 8 6 5 4 4 4 5 5 5 5 3 3 3 3 2 3 2 3 5 7 2 2 3 2 2 2 2 2 1 1 1 1 1
5 4 2 3 2 2 3 2 4 6 6 5 4 5 5 7 7 7 8 8 8 8 7 7 6 5 4 4 4 3 3 3 4 3 5 5 6 7 6 4 4 5 6 5 8 8 8 7 6 6 7 7 8 7 5 5 5 5 5 5 5 3 2 3 2 2 2 2 2 2 5 4 2 3 2 1 1 1 0 1 0 1 1 1 1
5 5 3 3 3 2 3 3 3 5 6 5 4 4 4 6 5 4 4 5 6 6 5 4 5 3 3 2 2 3 3 3 3 4 3 3 6 8 7 6 5 6 7 6 9 8 7 7 6 6 7 8 8 4 4 5 7 6 5 4 3 2 2 2 2 2 2 2 2 3 6 3 1 2 1 1 1 0 1 1 1 1 1 0 1
7 6 5 3 3 4 3 5 5 4 5 5 4 4 4 4 5 5 4 5 5 5 4 3 3 3 3 2 3 2 3 3 3 4 3 5 5 8 7 6 5 6 7 7 8 9 7 6 6 7 8 8 4 4 4 3 3 6 5 3 2 2 1 1 1 1 1 1 1 5 6 3 2 1 1 1 1 1 1 1 1 0 0 1 2
7 6 7 5 3 4 4 4 4 4 5 5 4 4 4 3 5 5 5 4 4 5 3 4 3 4 4 3 3 2 3 4 3 6 6 3 4 5 5 6 6 6 7 4 6 7 7 6 7 8 6 4 3 3 2 2 2 3 2 2 1 1 1 0 0 0 0 1 1 5 5 5 2 2 2 2 2 2 2 2 2 2 1 1 1
7 8 6 7 5 4 4 5 4 4 6 5 5 5 4 4 4 5 5 4 3 3 8 5 4 4 4 5 3 3 4 3 2 2 3 3 2 3 2 2 0 2 5 3 3 4 4 4 4 4 3 3 3 2 1 1 1 2 2 2 1 0 0 0 0 0 0 1 2 4 5 5 5 3 3 3 3 3 3 3 3 2 1 1 2
6 7 8 9 8 6 5 4 5 6 6 6 6 5 5 5 4 5 6 5 5 4 2 5 5 3 6 4 3 4 4 3 2 3 4 4 2 2 4 2 2 2 3 4 3 5 3 3 4 4 2 2 3 2 2 1 1 2 2 2 1 0 1 1 1 1 1 1 2 4 5 6 5 4 4 5 4 3 4 4 4 3 2 2 3
8 7 7 7 8 7 7 5 6 6 6 5 5 5 5 5 4 4 4 5 4 1 4 4 5 9 7 6 6 4 2 3 4 3 4 3 2 3 3 3 4 4 4 5 4 4 4 4 3 3 2 3 3 2 2 2 2 2 3 3 2 1 1 2 2 2 2 2 3 4 4 5 5 5 5 5 6 5 5 5 6 4 4 4 4
5 8 8 8 8 9 7 6 5 4 3 4 4 4 4 4 4 4 5 4 7 8 4 2 1 1 3 4 3 5 6 5 4 3 2 3 5 5 0 2 2 1 1 3 6 4 4 3 3 2 2 2 3 2 2 1 1 1 2 4 3 3 3 3 3 3 3 2 2 4 4 5 5 5 6 6 7 7 6 6 7 7 5 3 5
11 11 9 9 10 9 7 6 4 3 2 3 4 2 2 3 2 3 3 3 2 5 7 7 4 2 4 7 11 7 5 5 5 5 3 4 1 2 3 4 2 3 3 1 3 4 4 4 3 3 2 3 2 3 1 0 1 1 1 3 4 4 4 3 3 3 3 3 3 4 5 6 6 6 6 7 7 8 8 7 8 8 6 5 6
10 9 10 9 9 10 8 6 3 2 2 2 2 2 2 3 2 1 1 2 2 0 0 1 2 2 4 3 2 3 6 7 6 5 5 4 4 2 2 3 6 7 6 6 5 5 5 4 4 3 4 3 3 2 1 1 0 1 1 1 3 3 4 4 4 4 4 4 4 4 7 7 7 7 7 7 7 8 8 9 9 8 8 8 7
9 11 11 10 9 9 9 8 4 0 2 2 1 1 1 1 1 1 1 0 1 3 4 5 2 1 2 4 4 7 7 7 6 5 5 5 4 3 3 2 1 2 2 2 3 6 6 6 6 5 4 4 2 0 1 1 1 2 1 0 3 3 4 3 4 3 4 4 4 4 4 8 8 8 7 8 8 8 8 9 10 9 9 10 10
11 12 10 9 10 11 10 10 7 2 3 2 3 3 3 2 2 1 1 1 0 1 1 1 3 3 1 0 1 2 1 2 2 6 8 6 4 6 5 2 3 4 5 3 2 0 1 1 2 3 3 2 2 1 0 1 2 1 1 1 1 2 3 3 3 4 4 4 4 4 4 5 8 9 8 8 9 9 9 9 10 10 10 11 11
7 8 10 9 11 10 10 11 9 7 4 4 4 3 3 4 2 1 1 1 2 3 4 5 5 4 3 3 3 3 3 4 3 1 2 2 5 8 6 7 6 5 4 3 3 3 3 4 3 3 3 3 1 1 0 0 2 2 2 1 1 2 2 2 3 4 4 4 4 4 5 4 5 7 9 9 8 8 9 9 10 11 11 11 11
8 8 10 13 10 8 7 8 10 10 9 6 3 4 3 4 4 3 2 1 0 1 3 3 2 3 5 5 3 0 1 1 3 2 3 2 1 3 2 4 6 7 5 5 5 4 4 4 3 3 3 3 3 3 2 4 3 1 2 2 1 2 2 3 3 3 3 4 5 4 4 4 5 5 6 8 9 8 8 7 7 7 8 9 12
8 10 12 10 10 10 9 9 11 11 10 9 9 7 7 7 7 7 7 7 7 6 7 7 7 5 6 6 6 3 2 3 4 5 4 3 4 5 4 6 3 1 3 3 3 2 3 5 5 5 3 2 3 3 3 4 4 5 3 1 3 2 1 2 2 4 4 4 5 4 4 3 5 4 5 6 7 8 8 8 6 7 7 8 9
11 9 9 10 12 11 11 11 12 12 11 10 9 9 9 9 8 8 9 9 8 9 9 9 9 8 8 7 7 7 7 8 8 5 2 2 3 4 6 4 3 3 3 3 3 5 3 4 3 4 4 4 3 5 2 3 2 4 3 3 3 2 4 3 3 3 4 3 4 5 5 4 5 4 4 6 5 6 9 8 7 6 5 6 7
9 11 11 10 12 12 12 13 13 11 10 11 11 11 11 12 11 11 12 12 11 10 10 10 11 10 10 10 11 11 11 9 7 5 6 7 6 5 6 4 1 1 4 3 3 3 4 4 4 4 4 5 5 4 3 3 4 3 3 4 3 3 4 3 4 5 3 4 4 3 4 5 4 5 4 5 5 6 7 9 8 7 6 6 7
9 10 9 10 9 9 9 11 10 10 9 9 9 9 9 11 11 10 12 12 11 10 10 11 11 10 11 11 12 12 12 12 10 9 8 7 7 6 5 6 5 5 4 1 1 3 4 5 6 4 3 3 4 4 6 4 3 3 3 3 3 3 4 4 5 3 4 5 4 4 4 3 4 5 5 5 5 5 5 8 9 8 7 6 7
9 9 10 10 10 10 10 12 12 11 10 9 8 9 9 9 9 11 12 11 10 10 10 11 10 10 11 11 12 12 12 12 12 11 9 8 8 7 7 6 6 6 6 6 7 7 7 7 5 2 1 1 1 2 2 1 2 2 3 4 3 4 5 4 3 4 4 4 4 4 2 5 3 5 5 4 4 4 6 6 6 6 6 8 7
8 9 11 12 12 12 9 11 11 9 8 9 8 8 10 10 10 10 12 11 10 10 11 11 9 11 10 11 12 12 11 11 12 11 11 10 10 9 8 7 6 5 5 6 5 5 5 5 5 5 4 4 4 5 2 1 1 3 5 5 4 4 5 4 4 5 4 4 5 3 5 5 4 5 4 4 5 5 5 5 5 6 6 7 9
10 11 12 12 11 10 11 13 9 10 10 9 9 8 8 7 10 11 10 9 9 10 12 10 12 11 12 12 12 11 11 12 12 11 11 9 9 8 8 7 7 7 6 6 4 4 3 3 3 4 3 4 2 4 4 1 3 5 3 4 5 4 6 4 6 6 6 6 4 5 6 5 6 5 5 4 5 5 4 4 5 6 6 6 7
11 10 11 10 9 10 11 10 9 10 10 8 6 9 6 5 8 8 9 8 9 10 9 11 11 10 12 12 11 11 12 12 10 10 10 10 10 10 10 10 8 7 6 4 5 4 5 6 4 3 3 2 1 2 1 3 3 3 6 7 5 6 3 2 5 7 5 4 4 4 5 5 6 6 3 3 5 4 4 5 4 5 5 6 6
7 10 8 10 11 11 10 9 9 9 9 8 8 7 6 7 7 5 7 8 7 7 8 8 9 10 12 12 11 11 11 10 10 10 10 10 10 9 8 7 8 7 7 7 7 7 6 7 5 3 3 1 0 1 2 4 1 2 1 3 4 7 5 4 2 4 6 7 4 5 4 4 7 4 2 3 6 5 4 4 5 5 6 5 6
8 9 10 10 9 10 10 10 10 9 9 9 7 5 6 5 7 8 9 10 7 5 8 10 11 13 14 11 11 11 12 12 12 11 10 10 10 10 8 8 9 8 8 9 10 10 9 7 3 2 1 2 2 2 1 2 2 4 5 1 2 2 8 2 4 7 3 4 2 5 3 6 6 4 1 5 6 4 5 4 5 6 6 6 5
9 9 9 9 7 9 9 9 9 9 8 8 8 5 6 6 5 6 6 6 9 10 12 12 10 9 10 12 11 10 11 11 10 11 10 10 9 9 8 8 8 8 7 8 8 7 8 7 6 5 5 2 5 3 2 0 1 2 1 2 4 1 2 4 8 8 2 1 2 3 4 4 5 4 3 6 5 6 6 5 6 6 7 7 6
9 8 6 7 7 8 8 9 9 9 9 9 8 9 10 9 10 12 12 11 12 12 11 9 10 10 9 5 11 11 10 11 10 11 11 10 10 10 9 10 10 9 9 8 7 8 10 9 8 6 6 4 2 3 3 0 2 2 4 3 3 4 5 5 7 8 2 2 5 3 4 4 4 4 5 6 7 7 5 7 6 7 7 6 6
6 4 5 6 7 7 7 9 9 8 8 8 8 8 12 11 12 11 9 9 10 7 4 5 6 6 7 10 9 10 11 12 11 11 11 10 10 10 10 10 9 9 8 9 9 8 7 6 6 8 6 5 4 5 5 5 1 1 3 3 3 3 3 3 5 7 13 2 1 5 6 3 4 4 5 6 7 6 7 6 7 7 7 6 6
4 4 6 6 8 7 8 9 8 9 8 7 10 8 11 10 11 11 10 10 10 7 5 6 6 6 10 10 9 9 10 11 11 11 11 10 10 10 10 10 10 9 8 8 8 7 7 7 6 5 6 7 6 5 3 4 4 4 2 2 2 3 4 4 4 6 7 11 11 2 3 6 3 4 5 7 7 7 7 6 7 7 7 7 7
4 5 5 5 5 6 7 8 10 9 8 8 9 9 9 9 9 9 11 7 7 6 5 6 7 7 11 9 10 9 10 11 11 11 11 10 10 9 9 9 9 9 7 8 7 7 8 8 9 9 8 6 6 5 4 5 5 3 5 3 3 2 2 4 4 3 4 7 12 7 8 3 4 4 6 5 6 6 7 8 7 7 7 8 7
4 4 4 4 5 5 8 11 10 8 6 8 9 9 8 8 11 10 11 7 6 6 6 8 7 6 9 8 7 8 8 9 10 10 11 11 11 10 10 10 9 7 7 7 7 8 8 8 7 6 7 7 6 6 5 5 5 5 4 3 3 3 3 2 1 1 3 6 10 11 9 10 11 4 3 4 7 7 7 6 6 6 7 8 7
3 4 5 5 4 7 7 12 7 7 7 8 8 10 8 8 9 9 9 9 6 6 9 9 7 8 9 8 7 7 7 7 7 8 9 8 9 9 9 9 8 8 9 9 9 7 7 6 6 6 7 7 6 6 6 5 4 5 5 5 5 4 3 3 5 4 4 5 7 10 10 8 10 13 4 5 5 6 5 4 6 7 8 8 8
Wind_Direction
230 204 190 194 192 185 180 177 175 171 171 168 167 163 153 151 155 155 146 140 135 134 126 132 136 132 130 130 126 122 121 117 117 110 105 97 93 91 83 88 93 102 114 111 102 94 88 84 80 78 76 72 70 65 64 60 54 52 52 53 53 54 54 50 48 47 47 49 52 58 70 71 69 71 70 66 66 62 54 52 51 46 48 52 56
187 203 189 190 189 184 182 178 176 176 173 170 170 163 157 155 159 158 151 146 142 137 133 136 139 139 136 133 129 127 125 123 117 110 102 97 93 90 93 90 104 111 114 105 101 96 89 82 77 73 70 70 71 71 70 65 58 56 54 54 53 50 46 43 41 42 46 48 38 41 49 70 70 69 70 67 64 62 59 59 54 45 38 56 55
167 182 183 187 185 186 182 178 180 179 176 173 171 166 160 158 160 159 155 153 146 142 140 137 144 150 143 138 134 132 127 124 119 112 104 93 82 75 78 72 79 105 103 100 95 93 84 81 77 71 65 63 61 62 64 62 56 53 52 50 49 46 40 37 37 38 39 43 40 39 32 29 66 73 72 69 68 67 63 62 60 57 52 56 55
160 179 178 181 186 185 181 181 181 180 178 175 172 166 163 161 163 162 160 158 153 148 146 145 153 154 146 138 141 139 135 131 127 124 118 103 94 88 80 73 73 90 99 100 100 93 87 81 78 71 63 57 54 54 54 52 50 49 47 45 44 41 37 35 38 37 38 41 45 45 31 28 27 73 76 77 73 66 65 64 62 58 56 53 54
166 166 176 176 183 186 183 182 181 177 180 175 174 170 166 166 167 165 163 162 158 156 153 151 158 161 150 145 148 145 141 139 136 133 128 118 106 99 86 85 79 98 107 104 97 92 90 85 80 75 67 60 55 52 50 47 46 45 44 41 38 38 33 31 37 41 40 47 46 42 35 27 24 65 86 87 80 74 65 60 58 55 51 52 49
165 163 173 178 179 185 185 181 182 177 177 170 176 173 171 169 169 169 167 166 162 159 159 159 162 166 158 153 150 150 148 143 140 134 129 123 115 100 93 92 88 105 112 111 100 98 93 90 83 78 71 63 58 54 51 49 46 44 41 39 37 37 35 33 38 50 56 61 54 43 35 33 30 24 80 77 84 81 74 67 62 56 52 50 47
165 165 169 178 181 183 184 180 183 179 180 172 176 174 172 171 171 171 171 170 167 166 162 163 168 171 165 160 153 152 153 150 144 138 136 128 116 104 107 96 92 109 115 111 104 102 95 91 85 78 72 64 56 52 49 48 45 44 43 39 37 40 39 42 41 55 68 68 60 43 40 29 32 21 71 81 73 72 74 69 64 61 58 53 47
154 169 174 176 182 188 184 180 183 181 182 174 172 174 174 170 173 174 177 176 174 172 166 171 168 176 172 164 157 158 159 155 150 144 141 134 129 120 117 112 107 117 119 116 112 101 95 83 79 75 70 64 55 46 44 42 41 40 42 38 37 47 53 55 56 58 70 60 55 42 44 37 38 40 64 68 77 75 68 67 64 61 59 57 51
168 181 175 178 184 188 189 183 183 184 184 176 174 175 176 177 176 178 181 182 179 178 175 175 175 174 175 169 165 165 160 158 153 150 148 146 135 132 127 114 121 130 127 127 119 104 92 84 76 69 66 59 51 43 39 36 36 38 38 35 29 42 56 68 74 72 69 62 52 44 52 51 46 46 75 85 77 76 73 66 59 61 62 60 56
166 180 182 177 185 191 191 188 187 185 187 181 175 178 181 185 179 183 185 185 185 182 180 184 183 179 177 176 174 169 166 165 160 154 152 148 139 133 129 123 128 128 126 125 130 110 88 81 64 68 67 63 53 45 37 31 31 38 42 40 37 37 49 59 70 67 76 85 76 59 72 83 66 70 93 87 83 80 78 79 79 74 72 64 57
162 177 182 185 186 194 196 193 190 187 188 186 178 182 186 186 187 188 189 190 191 188 187 189 190 185 184 186 176 175 179 175 168 157 152 146 156 139 138 138 135 131 139 133 127 105 97 81 66 79 69 68 61 50 37 31 30 35 44 49 50 50 59 70 74 52 50 63 70 50 51 80 78 90 101 95 89 84 80 75 73 70 61 61 58
167 169 182 184 191 199 201 199 197 190 192 188 181 184 187 189 188 192 193 193 193 192 193 194 193 192 192 187 184 187 187 183 173 158 149 156 153 148 142 148 150 148 138 138 116 102 97 132 102 112 94 80 68 54 41 35 37 37 44 52 61 62 63 69 65 55 55 54 60 40 30 42 67 125 111 98 93 91 89 76 67 60 58 55 54
173 174 176 181 188 202 205 204 203 197 197 192 189 188 191 192 192 195 194 195 196 197 197 197 195 199 192 196 190 195 197 190 179 163 158 157 160 157 152 155 150 132 108 71 51 48 328 115 203 116 108 86 73 58 46 42 43 41 43 58 65 70 67 63 70 69 52 51 50 36 22 5 354 172 105 100 93 87 72 67 62 55 56 51 45
164 185 182 179 190 205 207 211 207 204 201 198 194 192 194 196 196 198 196 198 199 199 200 198 198 200 200 199 197 202 204 193 192 172 167 160 162 160 158 159 157 125 93 61 42 29 14 2 90 110 100 87 72 59 52 48 46 46 44 53 65 67 65 61 56 66 61 47 41 24 3 338 301 221 112 100 86 73 65 63 55 49 48 49 39
175 185 193 180 187 199 208 215 217 213 207 204 199 198 198 198 199 200 201 198 202 200 204 203 199 201 204 204 205 208 203 199 196 180 173 166 165 165 152 150 151 130 90 90 46 13 354 85 104 101 95 83 70 64 59 55 47 44 49 61 69 70 71 72 60 54 53 47 28 15 2 335 285 184 124 115 98 69 50 37 42 40 41 38 29
172 191 192 202 192 193 201 216 221 219 219 211 206 204 203 202 200 203 203 201 203 203 205 209 203 204 205 208 209 208 202 203 198 187 178 182 172 172 163 161 160 156 116 52 49 20 307 111 105 100 97 84 74 67 58 59 53 43 51 70 74 79 73 83 71 53 47 46 22 22 1 356 352 186 202 96 76 52 42 47 32 42 40 26 17
162 170 183 210 205 198 199 205 212 217 224 220 212 209 207 207 201 200 204 204 205 206 206 208 211 208 208 211 215 213 187 202 200 193 185 193 188 180 174 174 169 165 164 145 32 329 71 108 107 106 100 94 85 74 63 58 56 46 56 73 77 77 69 78 71 51 44 39 35 16 359 2 22 25 292 141 111 74 75 60 53 45 26 23 12
200 170 193 200 204 206 199 201 204 208 212 219 222 214 207 208 207 202 205 206 202 208 210 209 214 216 214 217 215 186 176 195 197 196 185 202 196 183 177 195 176 175 166 173 300 96 114 112 114 112 104 98 89 79 67 67 59 53 58 70 79 76 66 72 73 41 41 40 22 5 9 358 35 43 45 56 87 90 78 71 58 36 14 15 38
204 196 203 191 207 201 204 202 204 204 205 205 203 217 214 206 206 203 204 206 203 209 214 214 216 221 218 216 190 169 177 186 196 198 185 205 187 181 175 177 187 184 190 155 127 119 118 122 118 113 107 97 89 79 75 67 63 61 64 72 72 65 66 64 62 48 36 32 12 13 345 360 44 52 52 70 84 98 79 58 51 24 359 32 160
340 335 301 283 240 218 214 207 206 209 208 200 199 200 214 212 206 203 204 206 206 206 212 216 216 219 217 202 177 163 174 184 187 183 183 205 197 167 172 167 185 204 156 160 128 129 127 128 127 118 109 98 89 83 76 76 65 65 75 81 72 76 64 64 68 55 36 18 8 360 344 346 352 41 71 54 76 80 79 70 53 32 144 123 150
11 8 354 328 304 272 248 231 216 212 212 208 203 199 197 205 212 210 207 204 208 209 205 208 212 215 212 193 171 162 168 172 183 181 190 200 185 173 179 186 187 159 146 147 137 137 138 138 136 123 113 99 89 77 50 64 56 60 66 75 76 69 69 73 70 65 47 16 8 340 340 335 343 275 276 263 297 281 234 133 121 180 163 231 356
335 331 352 340 304 261 249 246 236 221 213 211 205 201 191 190 202 200 203 212 207 210 207 200 196 197 187 164 168 163 164 175 175 188 185 192 184 182 191 192 182 154 146 153 143 148 148 148 142 132 116 99 87 69 50 32 34 37 54 68 68 76 52 72 76 60 27 358 4 335 348 333 256 268 235 273 259 175 138 178 185 241 269 137 221
334 337 325 336 280 280 238 226 223 214 217 213 206 197 189 177 199 199 191 201 204 195 195 194 185 187 169 164 160 161 164 175 188 194 189 192 191 186 195 194 188 163 154 160 150 152 153 154 142 119 96 87 72 72 64 49 24 18 34 39 64 58 63 59 68 57 35 331 333 338 346 334 262 235 240 221 207 196 197 203 208 355 296 339 338
314 309 307 300 258 247 249 228 221 211 212 213 207 194 187 172 188 194 185 188 203 188 189 179 189 180 177 173 161 162 162 175 210 196 188 190 200 193 204 204 189 163 163 154 147 146 144 148 120 98 81 71 77 55 56 54 39 27 29 38 41 30 42 25 31 77 7 326 314 328 344 349 275 256 242 232 230 215 223 220 220 236 217 240 253
318 309 313 309 301 265 244 238 218 208 205 209 204 203 186 178 179 186 178 175 199 222 183 181 192 183 182 173 166 157 167 163 169 182 183 179 198 169 200 217 226 189 141 142 116 133 117 102 83 80 96 105 86 61 50 39 24 21 21 11 37 7 351 356 339 334 308 319 295 329 342 343 339 286 251 244 237 236 238 237 247 242 258 293 284
331 352 340 327 327 311 272 245 218 212 205 204 203 192 178 190 178 186 174 166 179 199 265 179 182 207 172 170 149 161 164 152 150 177 162 155 205 197 188 191 158 184 128 131 115 118 103 109 122 119 103 96 100 97 71 57 10 360 1 4 7 350 335 319 322 306 311 328 303 328 333 334 323 325 300 265 239 234 244 253 251 241 249 271 276
342 335 327 324 320 327 316 273 237 214 212 206 200 188 196 191 180 172 192 170 143 220 197 223 232 186 174 173 177 164 160 158 158 177 170 148 184 207 191 167 184 180 158 147 152 124 134 135 132 130 122 113 97 85 78 72 63 10 344 341 344 328 311 292 297 291 307 317 305 316 322 320 313 310 304 285 254 237 244 250 258 249 254 254 266
341 343 342 330 327 323 317 304 265 237 210 198 199 196 188 182 179 173 190 202 189 222 241 239 244 226 177 134 154 177 175 166 171 173 191 148 187 182 148 171 161 185 128 197 159 133 121 122 133 128 133 124 137 111 92 75 72 65 351 325 324 316 299 293 296 296 301 311 303 302 310 305 304 299 297 291 278 243 234 244 255 261 247 257 253
0 350 338 339 335 324 320 306 275 242 226 192 199 181 164 176 175 178 183 155 219 216 226 203 190 195 237 212 175 167 159 171 171 179 172 166 161 314 188 181 196 159 141 134 137 148 145 149 163 163 159 160 155 161 132 83 78 72 49 323 320 310 304 305 297 297 298 301 306 295 301 294 285 283 278 283 287 280 244 236 241 258 275 239 253
348 333 343 344 336 332 329 323 296 238 203 189 173 151 159 169 169 178 140 139 205 75 65 240 288 269 210 193 297 199 170 163 168 167 172 181 162 146 282 259 197 178 174 185 174 153 172 160 162 167 173 179 191 210 143 223 4 47 64 320 308 297 302 298 299 293 298 305 289 294 300 298 293 279 276 276 273 281 268 231 240 243 243 249 253
342 351 351 348 336 342 349 348 331 201 142 151 114 113 97 123 87 89 94 220 162 211 255 315 28 28 292 306 185 170 175 169 169 179 184 175 162 166 200 158 299 329 319 170 150 186 176 179 183 184 189 185 209 88 132 246 328 347 16 336 279 314 296 292 295 294 295 297 302 303 305 305 302 295 287 276 269 270 279 254 244 242 243 247 247
356 350 346 338 346 357 355 2 357 51 96 91 79 68 63 64 78 80 37 59 88 254 297 313 297 309 34 40 174 127 59 348 283 184 170 166 176 182 180 190 225 202 192 203 178 71 94 88 115 137 139 141 141 106 86 202 277 279 355 315 308 313 305 309 301 304 303 300 305 310 313 308 310 306 301 290 275 273 273 269 257 257 246 251 262
345 340 338 351 5 358 1 5 11 22 54 80 90 87 85 80 77 80 91 115 187 220 227 233 232 230 237 207 205 197 171 172 159 154 299 249 190 180 190 203 214 197 188 157 129 138 135 137 113 107 107 108 124 217 94 58 294 307 358 320 352 311 310 321 305 313 310 306 306 309 313 314 310 313 309 311 304 295 287 279 270 260 258 256 256
344 344 353 9 2 3 4 12 14 26 24 25 48 94 113 116 119 125 113 113 351 245 238 256 247 250 223 228 241 59 242 147 146 183 180 198 272 272 256 224 210 203 175 170 175 159 148 148 148 135 145 159 206 228 244 272 274 301 310 291 336 296 330 325 313 306 307 298 299 307 303 313 313 307 309 312 315 315 302 295 301 290 285 284 274
358 2 4 353 8 14 10 22 15 27 27 29 27 32 30 39 35 34 32 21 20 16 8 7 356 354 360 351 335 294 253 203 190 184 182 176 186 204 209 226 204 112 134 138 140 136 155 178 157 171 157 187 204 228 212 241 260 278 277 317 297 309 310 283 309 303 298 289 306 297 308 307 303 305 307 309 311 312 318 319 303 291 283 285 296
8 358 358 3 17 17 16 25 22 27 30 36 43 49 54 54 52 47 45 40 40 33 27 25 20 23 23 20 16 20 15 6 358 343 282 206 197 206 223 220 171 153 133 132 142 176 176 167 182 170 179 226 200 248 203 245 262 272 289 297 278 291 295 294 285 272 258 281 284 300 303 296 292 293 299 300 301 304 307 310 304 294 308 318 308
4 9 9 8 18 14 18 24 22 20 27 36 47 55 59 62 62 58 59 55 50 44 40 40 42 40 33 32 30 34 25 18 18 33 22 4 352 337 353 10 30 147 157 144 173 172 170 180 185 210 205 208 194 234 246 227 249 256 287 291 309 319 296 282 272 267 285 269 269 285 296 288 288 297 294 294 293 296 303 302 304 310 321 315 309
11 15 15 20 18 16 21 25 23 22 25 32 42 55 61 66 66 64 60 59 54 53 44 47 41 37 39 38 39 40 34 30 35 35 39 28 24 20 21 24 19 2 350 344 201 156 176 181 206 210 215 196 208 216 236 229 226 271 296 291 300 295 263 261 249 258 260 276 272 265 256 273 297 287 284 280 286 301 300 298 301 307 313 308 296
16 15 20 23 26 23 24 27 25 18 23 30 35 49 52 61 63 62 59 56 51 52 49 52 41 36 41 33 36 39 33 35 38 37 46 43 43 43 44 32 36 29 26 18 12 4 360 350 330 360 23 352 328 249 277 277 277 282 273 265 259 253 255 258 279 277 267 257 266 263 267 264 261 269 271 278 289 293 292 293 302 303 299 296 295
22 21 27 28 26 25 25 32 26 16 26 38 35 40 52 45 49 51 49 42 45 45 46 47 42 40 34 35 39 38 34 36 34 32 39 41 45 39 40 29 37 58 58 41 23 26 15 12 10 1 352 340 9 15 34 64 353 278 265 268 254 263 262 245 255 254 257 248 242 249 260 260 249 259 258 265 275 270 279 290 297 292 293 295 299
28 25 32 29 28 26 32 31 14 23 34 32 35 39 42 47 51 55 58 46 46 48 47 37 43 39 32 34 35 36 34 36 31 32 35 40 47 41 38 36 37 44 47 44 40 45 48 86 73 65 31 10 345 20 358 7 356 305 300 296 300 252 251 242 244 252 247 248 234 238 244 247 251 252 251 245 251 260 268 278 279 287 292 299 297
18 26 32 27 29 31 39 32 23 28 31 30 39 53 43 64 87 70 75 57 45 44 43 37 40 39 37 35 35 34 34 33 28 34 38 36 39 37 33 30 26 30 45 53 53 60 51 49 41 35 41 66 342 9 352 346 358 341 333 329 330 312 291 258 258 257 257 257 243 245 252 240 255 250 266 266 269 265 260 260 273 282 283 288 287
23 30 25 32 30 33 32 34 31 32 29 26 37 48 49 49 69 67 71 79 61 68 65 51 46 46 42 37 36 38 36 37 29 29 36 30 34 41 40 38 39 32 38 37 37 40 41 51 47 45 4 23 211 360 56 70 287 336 260 322 326 353 333 342 317 290 268 250 232 246 259 276 263 275 274 272 269 269 271 265 268 265 268 270 275
29 29 26 33 32 32 30 32 33 33 30 25 31 35 59 72 70 80 73 70 67 57 64 49 39 38 35 31 34 31 31 33 28 30 36 34 29 31 29 33 34 31 38 38 31 27 19 29 40 63 95 345 15 20 68 98 112 20 334 22 282 29 318 341 331 295 314 282 262 255 258 253 260 280 312 272 272 276 266 261 258 257 261 262 264
32 30 25 29 36 33 31 37 39 37 37 32 32 33 57 53 57 77 78 76 47 39 39 33 32 36 38 32 26 26 31 36 33 33 33 33 33 33 35 34 36 30 37 45 42 36 33 30 24 26 32 25 353 25 4 117 182 131 127 341 335 345 243 292 332 295 345 2 306 276 274 274 284 284 258 261 256 252 251 255 249 249 248 245 248
32 20 19 29 35 36 37 40 44 40 34 32 35 55 58 62 56 50 45 46 46 33 34 25 25 32 36 32 36 31 32 38 35 33 33 31 32 29 32 33 32 29 30 38 35 30 28 28 17 21 17 17 360 1 345 360 203 203 183 195 181 254 310 316 349 303 335 234 292 319 274 263 256 259 251 256 259 258 241 251 248 253 250 250 249
20 4 24 34 38 43 43 47 49 45 35 35 36 59 65 64 70 74 74 69 76 55 48 44 52 45 52 46 41 36 35 38 36 35 34 33 34 31 30 32 32 29 25 34 32 26 21 24 13 28 24 13 21 20 2 336 339 244 211 220 198 205 185 291 282 316 310 314 68 328 307 280 255 247 257 251 258 264 259 244 255 251 254 246 248
357 14 37 34 43 42 49 51 50 50 39 38 50 49 77 77 79 78 74 70 71 78 52 53 51 54 56 45 42 40 39 39 37 36 35 36 37 36 33 34 35 28 29 32 28 14 20 23 27 26 30 29 23 28 348 349 18 328 13 320 247 238 222 237 240 246 273 299 298 280 257 281 290 269 257 265 259 253 263 254 250 253 250 248 241
15 33 34 36 39 46 56 58 54 49 39 43 56 53 67 76 82 87 82 71 79 75 73 57 56 46 59 43 45 39 38 37 36 34 33 34 36 36 35 38 38 31 30 30 25 23 25 22 19 22 24 28 28 9 18 2 360 344 340 334 346 298 263 222 231 200 251 290 292 302 302 309 292 256 261 248 266 260 250 255 249 250 251 251 240
14 30 38 44 47 51 59 62 52 48 40 50 58 61 61 70 75 75 85 80 73 73 67 60 54 43 57 47 44 43 36 36 32 32 31 27 29 29 32 33 32 29 32 30 27 27 23 26 25 26 25 31 21 23 21 358 358 342 345 322 335 328 327 326 158 254 263 218 271 298 300 304 301 279 230 268 263 254 252 251 259 253 252 250 246
23 43 50 51 53 60 63 65 50 50 46 51 59 63 62 63 75 75 79 83 73 74 67 55 50 48 51 45 43 42 41 41 36 36 36 29 29 29 30 27 27 26 25 23 22 19 16 21 21 31 35 34 21 18 18 19 8 360 356 358 342 330 307 292 293 294 282 293 297 294 304 295 290 301 258 248 258 268 265 251 252 252 250 252 253